Weather Search – Historical Data

Quick picks

Today Yesterday Last 7 days Last 30 days This month Last month Last year (same date) All of last year

Custom search

Database contains data from 2013-07-07 to 2026-09-03.

August 31, 2026 – September 3, 2026

82 measurements (hourly aggregated)

Max temperature
19,9 °C
31.08 14:25
Min temperature
9,1 °C
01.09 05:25
Avg temperature
12,6 °C
Total rainfall
14,2 mm
Max wind gust
10,7 m/s
SE · 01.09 22:10
Avg wind
1,0 m/s
Avg humidity
89 %
Avg pressure
1 006 hPa
Max UV index
3,3
31.08 14:10
Max solar radiation
740 W/m²
02.09 12:05
Avg radiation (daytime)
194 W/m²

Charts

Temperature and dew point
Wind and gusts
Wind rose · prevailing: SW
Rainfall
Humidity
Air pressure
UV and solar radiation

Detailed data

TimeTemp °CDew °C Humid %Wind m/sGust m/s Dir °Rain mmPress. hPa UVSolar W/m²
31.08.2026 00:00 13,111,6 910,1 2,2315 0,001 003,7 0,00
31.08.2026 01:00 12,611,6 940,2 2,2329 0,511 003,8 0,00
31.08.2026 02:00 12,311,4 940,2 2,2338 0,001 004,0 0,00
31.08.2026 03:00 12,211,4 950,0 0,0 0,001 003,9 0,00
31.08.2026 04:00 12,111,5 960,0 0,0 0,001 003,6 0,00
31.08.2026 05:00 11,811,2 960,0 0,9338 0,001 003,5 0,00
31.08.2026 06:00 11,410,8 960,0 0,9 0,001 003,6 0,03
31.08.2026 07:00 11,811,2 960,0 0,0 0,001 003,6 0,581
31.08.2026 08:00 12,111,5 960,0 0,9 0,001 003,6 0,8155
31.08.2026 09:00 13,512,5 930,0 0,4 0,001 003,6 1,3296
31.08.2026 10:00 16,213,0 810,5 2,2160 0,001 003,3 2,1463
31.08.2026 11:00 18,113,0 720,9 3,1283 0,001 003,4 2,6539
31.08.2026 12:00 18,612,9 690,7 3,1272 0,001 003,2 3,0429
31.08.2026 13:00 18,413,0 711,1 4,0246 0,001 003,2 3,2422
31.08.2026 14:00 19,313,0 671,8 4,5263 0,001 003,5 3,3600
31.08.2026 15:00 18,712,8 692,0 5,8270 0,001 003,5 2,9501
31.08.2026 16:00 18,012,4 702,5 6,7266 0,001 003,6 2,3435
31.08.2026 17:00 17,212,0 712,2 6,7270 0,001 003,8 1,7260
31.08.2026 18:00 16,611,3 711,8 5,4268 0,001 003,9 1,0211
31.08.2026 19:00 16,310,6 691,6 5,8272 0,001 004,2 0,8117
31.08.2026 20:00 14,810,5 750,7 4,5295 0,001 004,7 0,011
31.08.2026 21:00 13,710,2 790,3 2,2315 0,001 005,2 0,00
31.08.2026 22:00 13,110,4 830,0 1,3315 0,001 005,5 0,00
31.08.2026 23:00 12,210,0 860,0 0,0 0,001 005,7 0,00
01.09.2026 00:00 11,39,7 900,1 1,8315 0,001 006,1 0,00
01.09.2026 01:00 10,99,7 920,0 0,9 0,001 006,2 0,00
01.09.2026 02:00 10,39,2 930,0 0,0 0,001 006,4 0,00
01.09.2026 03:00 9,89,0 940,0 0,0 0,001 006,6 0,00
01.09.2026 04:00 9,48,6 950,0 0,9 0,001 006,7 0,00
01.09.2026 05:00 9,28,5 950,0 1,3315 0,001 006,8 0,00
01.09.2026 06:00 9,48,8 960,2 1,8338 0,001 006,8 0,05
01.09.2026 07:00 10,09,3 950,1 1,3338 0,001 006,9 0,035
01.09.2026 08:00 11,110,2 940,3 1,8338 0,251 007,1 0,035
01.09.2026 09:00 11,510,7 950,1 1,3338 0,511 007,3 0,954
01.09.2026 10:00 12,311,5 940,0 1,3338 0,251 007,3 1,1148
01.09.2026 11:00 13,211,8 920,3 3,1143 0,001 007,3 1,4161
01.09.2026 12:00 14,212,4 891,2 3,6148 0,001 007,2 1,7227
01.09.2026 13:00 14,712,2 861,9 4,5144 0,001 007,2 2,1221
01.09.2026 14:00 13,912,4 911,4 4,5159 0,251 007,0 1,6122
01.09.2026 15:00 13,712,8 941,8 4,5158 0,001 006,8 1,3108
01.09.2026 16:00 13,612,8 952,0 4,9165 0,251 006,7 1,8144
01.09.2026 17:00 13,312,5 951,8 5,8161 0,001 006,7 1,1150
01.09.2026 18:00 13,612,6 942,1 5,8154 0,001 006,2 0,869
01.09.2026 19:00 13,811,9 882,8 7,2156 0,001 005,8 0,534
01.09.2026 20:00 13,411,3 883,6 8,0139 0,251 004,8 0,03
01.09.2026 21:00 12,811,4 913,6 8,0139 2,791 003,9 0,00
01.09.2026 22:00 12,711,7 942,5 10,7182 1,271 004,0 0,00
01.09.2026 23:00 12,611,6 940,1 1,8248 0,001 004,7 0,00
02.09.2026 00:00 12,211,1 930,6 3,6225 0,001 005,2 0,00
02.09.2026 01:00 11,610,4 920,3 3,1225 0,001 005,5 0,00
02.09.2026 02:00 11,710,4 920,7 3,1170 0,251 005,1 0,00
02.09.2026 03:00 11,710,6 930,7 4,0189 1,521 005,2 0,00
02.09.2026 04:00 11,710,8 950,5 2,7182 0,511 005,1 0,00
02.09.2026 05:00 11,410,6 940,8 3,6203 0,001 004,9 0,00
02.09.2026 06:00 11,19,9 920,7 4,0221 0,251 005,0 0,01
02.09.2026 07:00 11,09,9 930,8 4,0228 0,511 005,1 0,021
02.09.2026 08:00 11,09,9 930,6 3,6218 0,001 005,5 0,642
02.09.2026 09:00 11,210,3 940,7 5,8222 0,511 005,9 0,998
02.09.2026 10:00 11,910,6 921,4 5,8225 0,001 006,3 1,6197
02.09.2026 11:00 13,510,5 822,7 7,6229 0,001 006,7 2,1394
02.09.2026 12:00 13,210,5 842,4 7,2227 0,511 007,0 2,5290
02.09.2026 13:00 12,89,8 822,8 8,5225 0,001 007,5 1,8223
02.09.2026 14:00 12,99,5 802,5 7,6218 0,001 007,7 2,0225
02.09.2026 15:00 13,19,9 812,2 8,5206 0,001 007,8 1,9278
02.09.2026 16:00 13,39,9 802,1 6,3203 0,001 008,0 2,2260
02.09.2026 17:00 12,110,0 872,3 8,5214 0,511 007,9 1,1130
02.09.2026 18:00 11,49,7 902,1 7,2216 0,761 008,0 0,642
02.09.2026 19:00 11,09,8 931,5 6,3225 0,511 007,9 0,015
02.09.2026 20:00 11,010,0 931,4 7,6218 0,511 007,9 0,02
02.09.2026 21:00 10,89,9 941,0 4,9211 0,251 008,2 0,00
02.09.2026 22:00 10,89,9 940,7 3,1221 0,001 008,3 0,00
02.09.2026 23:00 10,89,9 940,8 4,9209 0,001 008,3 0,00
03.09.2026 00:00 10,59,7 950,7 3,6195 0,511 008,4 0,00
03.09.2026 01:00 10,39,6 950,5 2,7236 0,251 008,4 0,00
03.09.2026 02:00 10,39,6 950,1 2,7173 0,251 008,2 0,00
03.09.2026 03:00 9,99,3 960,1 2,2191 0,001 007,7 0,00
03.09.2026 04:00 9,99,3 960,5 1,8180 0,001 007,4 0,00
03.09.2026 05:00 9,79,0 950,8 2,2105 0,251 007,0 0,00
03.09.2026 06:00 9,78,8 940,5 2,268 0,001 006,8 0,03
03.09.2026 07:00 9,48,2 921,0 2,734 0,001 006,5 0,334
03.09.2026 08:00 10,08,6 910,8 2,741 0,001 005,9 0,7166
03.09.2026 09:00 11,59,4 880,6 2,775 0,001 005,3 1,1264